Date String (YYYY-MM-DD hh:mm:ss) UTC,Instrument flags,Ambient pressure (hPa),Sample flow (lpm),Bypass flow (lpm),Sample temperature (°C),Ambient temperature (°C),ASC tube jacket temperature (°C),LED temperature (°C),Box temperature (°C),Sample RH (%),Span deviation,Mass concentration (μg/m³),Mass concentration (μg/m³),Mass concentration (μg/m³)
DateTimeUTC,F1_M11,P_M11,Q1_M11,Q2_M11,T1_M11,T2_M11,T3_M11,T4_M11,T5_M11,U1_M11,ZSPAN_M11,X0_M11,X2_M11,X1_M11
2022-09-05 17:00:00,,0829.2,4.98,0.00,29.7,28.2,00.0,38.3,31.6,15.5,0000.0,0014.23,0006.31,0005.22
2022-09-05 17:01:00,,0829.2,5.01,0.00,29.7,27.1,00.0,38.3,31.5,15.5,0000.0,0015.57,0006.26,0005.20
2022-09-05 17:02:00,,0829.3,5.00,0.00,29.6,26.8,00.0,38.2,31.4,15.6,0000.0,0014.96,0006.19,0005.19
2022-09-05 17:03:00,,0829.3,5.00,0.00,29.6,27.1,00.0,38.2,31.4,15.5,0000.0,0015.07,0006.19,0005.18
2022-09-05 17:04:00,,0829.3,4.99,0.00,29.6,27.3,00.0,38.2,31.3,15.4,0000.0,0015.48,0006.20,0005.17
2022-09-05 17:05:00,,0829.3,5.01,0.00,29.6,27.6,00.0,38.2,31.4,15.2,0000.0,0016.16,0006.19,0005.17
2022-09-05 17:06:00,,0829.4,5.00,0.00,29.6,27.9,00.0,38.2,31.4,15.5,0000.0,0015.58,0006.11,0005.15
2022-09-05 17:07:00,,0829.1,5.01,0.00,29.6,28.1,00.0,38.2,31.5,15.4,0000.0,0015.08,0006.03,0005.13
2022-09-05 17:08:00,,0829.2,4.99,0.00,29.6,28.3,00.0,38.3,31.5,15.4,0000.0,0015.47,0006.00,0005.12
2022-09-05 17:09:00,,0829.2,5.00,0.00,29.6,27.7,00.0,38.3,31.5,15.6,0000.0,0015.98,0005.95,0005.12
2022-09-05 17:10:00,,0829.1,5.00,0.00,29.6,26.8,00.0,38.3,31.3,15.8,0000.0,0016.03,0005.98,0005.12
2022-09-05 17:11:00,,0829.0,5.00,0.00,29.6,26.9,00.0,38.2,31.4,16.5,0000.0,0016.88,0005.99,0005.12
2022-09-05 17:12:00,,0829.1,4.99,0.00,29.5,27.2,00.0,38.2,31.3,16.4,0000.0,0016.57,0006.02,0005.12
2022-09-05 17:13:00,,0829.3,5.01,0.00,29.5,27.4,00.0,38.2,31.2,16.6,0000.0,0017.37,0006.07,0005.13
2022-09-05 17:14:00,,0829.2,5.00,0.00,29.5,27.7,00.0,38.2,31.3,16.6,0000.0,0017.70,0006.15,0005.12
2022-09-05 17:15:00,,0829.4,5.00,0.00,29.5,27.9,00.0,38.2,31.4,16.0,0000.0,0018.27,0006.17,0005.12
2022-09-05 17:16:00,,0829.3,5.01,0.00,29.6,28.2,00.0,38.2,31.4,15.7,0000.0,0018.23,0006.16,0005.11
2022-09-05 17:17:00,,0829.3,5.00,0.00,29.6,28.3,00.0,38.2,31.5,15.4,0000.0,0018.74,0006.15,0005.11
2022-09-05 17:18:00,,0829.3,4.99,0.00,29.6,27.8,00.0,38.2,31.5,15.5,0000.0,0019.00,0006.24,0005.12
2022-09-05 17:19:00,,0829.2,4.99,0.00,29.6,26.8,00.0,38.2,31.3,15.7,0000.0,0019.20,0006.26,0005.13
2022-09-05 17:20:00,,0829.2,5.00,0.00,29.5,26.8,00.0,38.2,31.3,15.9,0000.0,0018.67,0006.26,0005.12
2022-09-05 17:21:00,,0829.4,4.99,0.00,29.5,27.1,00.0,38.2,31.3,15.8,0000.0,0019.13,0006.29,0005.12
2022-09-05 17:22:00,,0829.3,5.00,0.00,29.5,27.4,00.0,38.2,31.3,15.8,0000.0,0018.83,0006.33,0005.12
2022-09-05 17:23:00,,0829.3,5.01,0.00,29.5,27.7,00.0,38.2,31.3,15.5,0000.0,0018.97,0006.34,0005.12
2022-09-05 17:24:00,,0829.3,5.00,0.00,29.5,27.9,00.0,38.2,31.4,15.2,0000.0,0017.48,0006.29,0005.11
2022-09-05 17:25:00,,0829.4,5.01,0.00,29.6,28.1,00.0,38.2,31.4,15.3,0000.0,0017.13,0006.22,0005.11
2022-09-05 17:26:00,,0829.3,4.98,0.00,29.6,28.1,00.0,38.2,31.5,15.9,0000.0,0016.08,0006.21,0005.12
2022-09-05 17:27:00,,0829.0,5.00,0.00,29.6,27.1,00.0,38.2,31.4,15.9,0000.0,0015.69,0006.22,0005.12
2022-09-05 17:28:00,,0828.8,5.00,0.00,29.5,26.6,00.0,38.2,31.3,16.2,0000.0,0015.30,0006.22,0005.12
2022-09-05 17:29:00,,0828.9,5.00,0.00,29.5,26.9,00.0,38.2,31.3,15.8,0000.0,0014.49,0006.19,0005.12
2022-09-05 17:30:00,,0829.0,4.99,0.00,29.5,27.2,00.0,38.1,31.2,15.5,0000.0,0014.39,0006.15,0005.12
2022-09-05 17:31:00,,0829.2,5.02,0.00,29.5,27.5,00.0,38.1,31.2,15.9,0000.0,0014.55,0006.14,0005.12
2022-09-05 17:32:00,,0829.1,5.00,0.00,29.5,27.8,00.0,38.1,31.3,16.0,0000.0,0014.05,0006.12,0005.12
2022-09-05 17:33:00,,0829.3,5.00,0.00,29.5,28.0,00.0,38.1,31.4,15.3,0000.0,0014.66,0006.10,0005.10
2022-09-05 17:34:00,,0829.3,4.99,0.00,29.5,28.2,00.0,38.2,31.4,15.4,0000.0,0013.99,0006.09,0005.11
2022-09-05 17:35:00,,0829.4,4.99,0.00,29.6,27.8,00.0,38.2,31.4,15.2,0000.0,0014.35,0006.09,0005.09
2022-09-05 17:36:00,,0829.2,5.00,0.00,29.5,26.7,00.0,38.2,31.3,15.3,0000.0,0014.59,0006.06,0005.08
2022-09-05 17:37:00,,0829.0,5.00,0.00,29.5,26.7,00.0,38.1,31.3,15.9,0000.0,0015.11,0006.03,0005.08
2022-09-05 17:38:00,,0829.1,5.00,0.00,29.5,27.0,00.0,38.1,31.2,16.2,0000.0,0015.47,0006.02,0005.09
2022-09-05 17:39:00,,0829.3,5.00,0.00,29.4,27.3,00.0,38.1,31.2,16.4,0000.0,0015.99,0006.06,0005.09
2022-09-05 17:40:00,,0829.4,5.00,0.00,29.4,27.6,00.0,38.1,31.2,16.7,0000.0,0016.35,0006.06,0005.09
2022-09-05 17:41:00,,0829.3,5.00,0.00,29.5,27.8,00.0,38.1,31.3,16.5,0000.0,0015.71,0006.11,0005.10
2022-09-05 17:42:00,,0829.3,5.01,0.00,29.5,28.1,00.0,38.1,31.4,16.5,0000.0,0015.36,0006.07,0005.09
2022-09-05 17:43:00,,0829.1,5.00,0.00,29.5,28.3,00.0,38.1,31.4,16.4,0000.0,0015.23,0006.09,0005.12
2022-09-05 17:44:00,,0829.4,4.98,0.00,29.6,27.9,00.0,38.2,31.5,16.2,0000.0,0014.27,0006.07,0005.14
2022-09-05 17:45:00,,0829.4,5.00,0.00,29.5,26.9,00.0,38.2,31.4,16.3,0000.0,0014.27,0006.06,0005.14
2022-09-05 17:46:00,,0829.3,5.00,0.00,29.5,26.8,00.0,38.1,31.4,16.3,0000.0,0014.50,0006.09,0005.14
2022-09-05 17:47:00,,0829.3,5.01,0.00,29.5,27.1,00.0,38.1,31.3,16.3,0000.0,0014.19,0006.11,0005.14
2022-09-05 17:48:00,,0829.3,4.99,0.00,29.5,27.4,00.0,38.1,31.2,16.3,0000.0,0013.77,0006.10,0005.14
2022-09-05 17:49:00,,0829.2,5.01,0.00,29.5,27.7,00.0,38.1,31.3,16.3,0000.0,0014.01,0006.09,0005.15
2022-09-05 17:50:00,,0829.0,5.00,0.00,29.5,27.9,00.0,38.1,31.4,16.3,0000.0,0012.86,0006.04,0005.15
2022-09-05 17:51:00,,0829.3,4.99,0.00,29.5,28.1,00.0,38.1,31.4,16.2,0000.0,0012.66,0006.01,0005.14
2022-09-05 17:52:00,,0829.3,5.00,0.00,29.6,28.4,00.0,38.2,31.5,16.2,0000.0,0012.88,0006.00,0005.14
2022-09-05 17:53:00,,0829.1,5.00,0.00,29.6,28.0,00.0,38.2,31.6,16.5,0000.0,0013.51,0006.09,0005.16
2022-09-05 17:54:00,,0829.1,5.00,0.00,29.6,27.0,00.0,38.2,31.4,16.6,0000.0,0014.04,0006.08,0005.16
2022-09-05 17:55:00,,0829.0,4.99,0.00,29.5,26.8,00.0,38.2,31.4,16.4,0000.0,0014.43,0006.11,0005.16
2022-09-05 17:56:00,,0829.1,5.00,0.00,29.5,27.1,00.0,38.1,31.4,16.5,0000.0,0015.27,0006.12,0005.17
2022-09-05 17:57:00,,0829.3,5.01,0.00,29.5,27.4,00.0,38.1,31.2,16.4,0000.0,0015.64,0006.13,0005.19
2022-09-05 17:58:00,,0829.3,5.00,0.00,29.5,27.7,00.0,38.1,31.3,16.4,0000.0,0016.31,0006.13,0005.19
2022-09-05 17:59:00,,0829.3,5.01,0.00,29.5,27.9,00.0,38.1,31.4,16.3,0000.0,0016.46,0006.21,0005.19
